FW7374 Weather Reports


time (UTC)temp
C
wind
direction
speed
KPH
gust
KPH
rain 1hr
cm
rain 24hr
cm
rain mn
cm
humidity
%
barometer
mb
20260507150522 13 20 1.6 6.4 0.00 0.05 0.03 58 1013.3
20260507143522 12 21 3.2 9.7 0.00 0.10 0.03 62 1013.9
20260507130522 12 5 3.2 12.9 0.00 0.30 0.03 61 1014.3
20260507120509 12 346 1.6 8.0 0.00 0.46 0.03 65 1014.1
20260507110510 12 355 1.6 8.0 0.00 0.58 0.03 69 1013.6
20260507100504 12 33 0.0 6.4 0.00 0.58 0.03 81 1013.0
20260507090500 12 23 1.6 6.4 0.00 0.58 0.03 81 1012.7
20260507083452 12 355 1.6 8.0 0.00 0.58 0.03 80 1012.2
20260507070432 12 9 1.6 8.0 0.00 0.58 0.03 84 1012.1
20260507060429 13 21 3.2 12.9 0.00 0.58 0.03 81 1012.3
20260507050427 13 5 3.2 6.4 0.03 0.58 0.03 85 1012.3
20260507040431 15 67 1.6 8.0 0.03 0.56 0.00 84 1012.0
20260507030424 16 355 3.2 14.5 0.00 0.53 0.53 79 1011.7
20260507020423 17 5 3.2 16.1 0.00 0.53 0.53 80 1011.1
20260507010424 18 343 3.2 9.7 0.00 0.53 0.53 82 1010.7
20260507000427 20 24 1.6 6.4 0.00 0.53 0.53 84 1010.4
20260506230424 21 295 0.0 4.8 0.00 0.53 0.53 81 1009.2
20260506220423 21 186 0.0 6.4 0.00 0.53 0.53 80 1008.9
20260506210424 21 221 1.6 14.5 0.00 0.53 0.53 78 1008.5
20260506200423 21 183 3.2 12.9 0.00 0.53 0.53 79 1008.5
20260506190424 21 186 4.8 14.5 0.00 0.53 0.53 79 1008.9
20260506180420 20 185 3.2 14.5 0.00 0.53 0.53 81 1009.1
20260506170417 18 205 3.2 12.9 0.00 0.53 0.53 85 1009.3